TimePST,TemperatureF,Dew PointF,Humidity,Sea Level PressureIn,VisibilityMPH,Wind Direction,Wind SpeedMPH,Gust SpeedMPH,PrecipitationIn,Events,Conditions,WindDirDegrees,DateUTC
12:53 AM,52.0,48.0,86,30.19,6.0,Calm,Calm,-,N/A,,Clear,0,2014-02-13 08:53:00
1:53 AM,50.0,46.9,89,30.18,5.0,Calm,Calm,-,N/A,,Clear,0,2014-02-13 09:53:00
2:53 AM,50.0,46.9,89,30.18,5.0,Calm,Calm,-,N/A,,Clear,0,2014-02-13 10:53:00
3:53 AM,48.0,45.0,89,30.18,3.0,Calm,Calm,-,N/A,,Clear,0,2014-02-13 11:53:00
4:53 AM,46.9,44.1,90,30.17,3.0,Calm,Calm,-,N/A,,Clear,0,2014-02-13 12:53:00
5:53 AM,46.9,44.1,90,30.19,3.0,Calm,Calm,-,N/A,,Clear,0,2014-02-13 13:53:00
6:53 AM,46.0,44.1,93,30.18,4.0,East,4.6,-,N/A,,Clear,90,2014-02-13 14:53:00
7:41 AM,46.9,45.0,93,30.19,1.0,Calm,Calm,-,N/A,,Mist,0,2014-02-13 15:41:00
7:43 AM,46.9,45.0,93,30.19,0.5,Calm,Calm,-,N/A,Fog,Fog,0,2014-02-13 15:43:00
7:50 AM,46.4,46.4,100,30.19,2.0,ESE,3.5,-,N/A,,Mist,120,2014-02-13 15:50:00
7:53 AM,46.9,46.0,97,30.20,2.0,Calm,Calm,-,N/A,,Mist,0,2014-02-13 15:53:00
7:56 AM,48.0,46.0,93,30.20,2.0,SE,3.5,-,N/A,,Partly Cloudy,130,2014-02-13 15:56:00
8:18 AM,50.0,48.0,93,30.20,3.0,Calm,Calm,-,N/A,,Clear,0,2014-02-13 16:18:00
8:53 AM,54.0,50.0,86,30.18,3.0,SE,5.8,-,N/A,,Clear,130,2014-02-13 16:53:00
9:53 AM,59.0,52.0,78,30.18,7.0,SE,3.5,-,N/A,,Clear,140,2014-02-13 17:53:00
10:53 AM,64.0,51.1,63,30.21,10.0,Variable,3.5,-,N/A,,Clear,0,2014-02-13 18:53:00
11:53 AM,66.9,51.1,57,30.20,10.0,NE,4.6,-,N/A,,Clear,50,2014-02-13 19:53:00
12:53 PM,70.0,53.1,55,30.16,10.0,Calm,Calm,-,N/A,,Clear,0,2014-02-13 20:53:00
1:53 PM,70.0,53.1,55,30.12,10.0,Calm,Calm,-,N/A,,Clear,0,2014-02-13 21:53:00
2:53 PM,73.0,52.0,48,30.11,10.0,Calm,Calm,-,N/A,,Clear,0,2014-02-13 22:53:00
3:53 PM,72.0,53.1,51,30.10,10.0,North,4.6,-,N/A,,Clear,350,2014-02-13 23:53:00
4:53 PM,71.1,53.1,53,30.08,10.0,NNE,5.8,-,N/A,,Clear,20,2014-02-14 00:53:00
5:53 PM,69.1,54.0,58,30.10,10.0,North,3.5,-,N/A,,Clear,360,2014-02-14 01:53:00
6:53 PM,64.0,54.0,70,30.10,10.0,Calm,Calm,-,N/A,,Clear,0,2014-02-14 02:53:00
7:53 PM,62.1,54.0,75,30.09,10.0,Calm,Calm,-,N/A,,Clear,0,2014-02-14 03:53:00
8:53 PM,59.0,54.0,83,30.09,10.0,ESE,4.6,-,N/A,,Clear,120,2014-02-14 04:53:00
9:53 PM,57.9,53.1,84,30.10,10.0,Calm,Calm,-,N/A,,Clear,0,2014-02-14 05:53:00
10:53 PM,55.9,52.0,87,30.12,10.0,Calm,Calm,-,N/A,,Clear,0,2014-02-14 06:53:00
11:53 PM,55.0,52.0,89,30.11,8.0,ESE,3.5,-,N/A,,Clear,110,2014-02-14 07:53:00